 day,  time,  air_temp(C),  RH(%),  ground_temp10cm(C),  ground_temp20cm(C),  ground_temp40cm(C),  precipitation(mm/h),  Solar_Radiation(MJ/m2h),  lack, 
 02/04/01, 01:00,   2.9,  88,   5.1,   4.8,   3.8,   0.0,  0.00, 
 02/04/01, 02:00,   1.8,  95,   4.9,   4.8,   3.8,   0.0,  0.00, 
 02/04/01, 03:00,   1.0,  99,   4.7,   4.7,   3.9,   0.0,  0.00, 
 02/04/01, 04:00,   0.7,  98,   4.3,   4.7,   3.9,   0.0,  0.00, 
 02/04/01, 05:00,  -0.5,  99,   4.1,   4.6,   3.9,   0.0,  0.00, 
 02/04/01, 06:00,  -0.8,  99,   3.9,   4.6,   3.9,   0.0,  0.00, 
 02/04/01, 07:00,   0.5,  99,   3.7,   4.5,   4.0,   0.0,  0.21, 
 02/04/01, 08:00,   3.4,  84,   3.6,   4.4,   4.0,   0.0,  1.13, 
 02/04/01, 09:00,   5.9,  69,   3.6,   4.3,   4.0,   0.0,  2.00, 
 02/04/01, 10:00,   8.5,  60,   3.8,   4.3,   4.0,   0.0,  2.62, 
 02/04/01, 11:00,  10.9,  50,   4.3,   4.2,   4.0,   0.0,  3.11, 
 02/04/01, 12:00,  13.7,  34,   5.2,   4.3,   4.0,   0.0,  3.30, 
 02/04/01, 13:00,  13.5,  23,   6.4,   4.3,   4.0,   0.0,  3.28, 
 02/04/01, 14:00,  14.2,  25,   7.5,   4.4,   4.0,   0.0,  3.07, 
 02/04/01, 15:00,  14.4,  37,   7.9,   4.6,   4.0,   0.0,  2.55, 
 02/04/01, 16:00,  12.7,  34,   7.9,   4.8,   4.0,   0.0,  1.91, 
 02/04/01, 17:00,  12.1,  33,   7.8,   5.0,   4.1,   0.0,  1.16, 
 02/04/01, 18:00,  10.0,  37,   7.6,   5.2,   4.0,   0.0,  0.35, 
 02/04/01, 19:00,   9.4,  35,   7.2,   5.4,   4.0,   0.0,  0.00, 
 02/04/01, 20:00,  10.2,  29,   7.0,   5.5,   4.1,   0.0,  0.00, 
 02/04/01, 21:00,   6.1,  44,   6.6,   5.6,   4.1,   0.5,  0.00, 
 02/04/01, 22:00,   7.9,  39,   6.3,   5.6,   4.1,   0.0,  0.00, 
 02/04/01, 23:00,   8.8,  36,   6.0,   5.6,   4.1,   0.0,  0.00, 
 02/04/02, 00:00,   8.8,  36,   5.7,   5.6,   4.2,   0.0,  0.00, 
 02/04/02, 01:00,   6.3,  45,   5.5,   5.6,   4.2,   0.0,  0.00, 
 02/04/02, 02:00,   5.9,  48,   5.3,   5.5,   4.2,   0.0,  0.00, 
 02/04/02, 03:00,   6.0,  45,   5.1,   5.5,   4.2,   0.0,  0.00, 
 02/04/02, 04:00,   7.1,  42,   4.9,   5.4,   4.3,   0.0,  0.00, 
 02/04/02, 05:00,   7.3,  43,   4.7,   5.2,   4.3,   0.0,  0.00, 
 02/04/02, 06:00,   6.1,  47,   4.6,   5.2,   4.3,   0.0,  0.00, 
 02/04/02, 07:00,   8.1,  43,   4.4,   5.2,   4.3,   0.0,  0.32, 
 02/04/02, 08:00,  10.7,  40,   4.4,   5.1,   4.3,   0.0,  1.02, 
 02/04/02, 09:00,  12.2,  38,   4.6,   5.1,   4.4,   0.0,  1.81, 
 02/04/02, 10:00,  13.0,  38,   4.9,   5.0,   4.4,   0.0,  2.44, 
 02/04/02, 11:00,  14.0,  37,   5.4,   5.0,   4.4,   0.0,  2.90, 
 02/04/02, 12:00,  14.4,  35,   6.3,   5.0,   4.4,   0.0,  3.11, 
 02/04/02, 13:00,  14.5,  35,   7.5,   5.0,   4.4,   0.0,  3.10, 
 02/04/02, 14:00,  14.6,  35,   8.4,   5.1,   4.4,   0.0,  2.82, 
 02/04/02, 15:00,  14.2,  36,   8.7,   5.3,   4.4,   0.0,  2.35, 
 02/04/02, 16:00,  13.4,  37,   8.7,   5.5,   4.4,   0.0,  1.69, 
 02/04/02, 17:00,  12.6,  42,   8.7,   5.7,   4.4,   0.0,  1.00, 
 02/04/02, 18:00,  11.5,  46,   8.5,   5.9,   4.5,   0.0,  0.27, 
 02/04/02, 19:00,  10.4,  50,   8.3,   6.1,   4.5,   0.0,  0.00, 
 02/04/02, 20:00,   8.0,  59,   8.0,   6.2,   4.5,   0.0,  0.00, 
 02/04/02, 21:00,   6.5,  64,   7.7,   6.3,   4.5,   0.0,  0.00, 
 02/04/02, 22:00,   7.1,  58,   7.3,   6.3,   4.5,   0.0,  0.00, 
 02/04/02, 23:00,   6.1,  60,   7.0,   6.3,   4.5,   0.0,  0.00, 
 02/04/03, 00:00,   8.3,  44,   6.7,   6.3,   4.6,   0.0,  0.00, 
 02/04/03, 01:00,   9.4,  33,   6.3,   6.3,   4.6,   0.0,  0.00, 
 02/04/03, 02:00,   6.5,  43,   6.1,   6.2,   4.6,   0.0,  0.00, 
 02/04/03, 03:00,   8.0,  39,   5.8,   6.2,   4.7,   0.0,  0.00, 
 02/04/03, 04:00,   7.0,  53,   5.6,   6.1,   4.7,   0.0,  0.00, 
 02/04/03, 05:00,   8.0,  50,   5.4,   6.0,   4.7,   0.0,  0.00, 
 02/04/03, 06:00,   7.6,  59,   5.2,   5.9,   4.7,   0.0,  0.00, 
 02/04/03, 07:00,   8.8,  60,   5.0,   5.9,   4.8,   0.0,  0.36, 
 02/04/03, 08:00,  11.4,  49,   5.0,   5.8,   4.8,   0.0,  1.11, 
 02/04/03, 09:00,  13.1,  44,   5.2,   5.7,   4.8,   0.0,  1.86, 
 02/04/03, 10:00,  15.1,  34,   5.5,   5.6,   4.8,   0.0,  2.51, 
 02/04/03, 11:00,  15.4,  32,   6.1,   5.6,   4.8,   0.0,  2.96, 
 02/04/03, 12:00,  15.7,  32,   7.1,   5.6,   4.8,   0.0,  3.17, 
 02/04/03, 13:00,  16.1,  37,   8.3,   5.6,   5.0,   0.0,  3.17, 
 02/04/03, 14:00,  15.3,  27,   9.3,   5.8,   4.9,   0.0,  2.68, 
 02/04/03, 15:00,  14.5,  31,   9.5,   6.0,   5.0,   0.0,  2.52, 
 02/04/03, 16:00,  12.4,  43,   9.3,   6.2,   4.9,   0.0,  1.39, 
 02/04/03, 17:00,  10.8,  59,   9.3,   6.4,   4.9,   0.0,  1.04, 
 02/04/03, 18:00,   9.2,  59,   9.2,   6.6,   4.9,   0.0,  0.24, 
 02/04/03, 19:00,   6.7,  77,   8.8,   6.7,   4.9,   0.0,  0.00, 
 02/04/03, 20:00,   5.7,  80,   8.7,   6.8,   4.9,   0.0,  0.00, 
 02/04/03, 21:00,   4.3,  87,   8.3,   6.9,   4.9,   0.0,  0.00, 
 02/04/03, 22:00,   3.0,  99,   8.1,   6.9,   5.0,   0.0,  0.00, 
 02/04/03, 23:00,   1.6,  95,   7.8,   6.9,   5.0,   0.0,  0.00, 
 02/04/04, 00:00,   0.4,  93,   7.4,   6.9,   5.0,   0.0,  0.00, 
 02/04/04, 01:00,  -0.5,  96,   7.2,   6.9,   5.0,   0.0,  0.00, 
 02/04/04, 02:00,  -0.7,  93,   6.9,   6.9,   5.1,   0.0,  0.00, 
 02/04/04, 03:00,  -0.7,  92,   6.5,   6.8,   5.1,   0.0,  0.00, 
 02/04/04, 04:00,  -1.0,  90,   6.2,   6.7,   5.1,   0.0,  0.00, 
 02/04/04, 05:00,  -1.0,  85,   5.9,   6.6,   5.2,   0.0,  0.00, 
 02/04/04, 06:00,  -1.1,  86,   5.6,   6.5,   5.2,   0.0,  0.00, 
 02/04/04, 07:00,  -0.9,  83,   5.3,   6.4,   5.2,   0.0,  0.17, 
 02/04/04, 08:00,   1.0,  69,   5.0,   6.3,   5.2,   0.0,  1.12, 
 02/04/04, 09:00,   1.8,  64,   4.9,   6.2,   5.3,   0.0,  2.11, 
 02/04/04, 10:00,   2.9,  58,   4.8,   6.1,   5.3,   0.0,  2.70, 
 02/04/04, 11:00,   4.2,  53,   5.1,   6.0,   5.3,   0.0,  3.10, 
 02/04/04, 12:00,   5.3,  46,   5.8,   5.9,   5.3,   0.0,  3.32, 
 02/04/04, 13:00,   5.8,  43,   6.8,   5.9,   5.3,   0.0,  3.30, 
 02/04/04, 14:00,   4.8,  42,   7.4,   5.9,   5.3,   0.0,  3.07, 
 02/04/04, 15:00,   4.7,  50,   7.5,   5.9,   5.3,   0.0,  2.53, 
 02/04/04, 16:00,   4.2,  51,   7.2,   6.0,   5.3,   0.0,  1.94, 
 02/04/04, 17:00,   3.7,  57,   7.1,   6.1,   5.3,   0.0,  1.16, 
 02/04/04, 18:00,   1.5,  69,   6.8,   6.2,   5.3,   0.0,  0.33, 
 02/04/04, 19:00,   0.7,  78,   6.3,   6.2,   5.3,   0.0,  0.00, 
 02/04/04, 20:00,   0.2,  78,   6.0,   6.2,   5.3,   0.0,  0.00, 
 02/04/04, 21:00,   0.0,  74,   5.6,   6.2,   5.3,   0.0,  0.00, 
 02/04/04, 22:00,  -0.2,  77,   5.3,   6.2,   5.3,   0.0,  0.00, 
 02/04/04, 23:00,  -0.7,  77,   5.0,   6.1,   5.3,   0.0,  0.00, 
 02/04/05, 00:00,  -1.2,  70,   4.7,   6.0,   5.3,   0.0,  0.00, 
 02/04/05, 01:00,  -1.5,  61,   4.4,   5.9,   5.3,   0.0,  0.00, 
 02/04/05, 02:00,  -2.0,  60,   4.2,   5.8,   5.3,   0.0,  0.00, 
 02/04/05, 03:00,  -2.7,  55,   3.9,   5.6,   5.4,   0.0,  0.00, 
 02/04/05, 04:00,  -3.1,  51,   3.6,   5.6,   5.4,   0.0,  0.00, 
 02/04/05, 05:00,  -2.7,  43,   3.4,   5.4,   5.3,   0.0,  0.00, 
 02/04/05, 06:00,  -4.2,  59,   3.2,   5.2,   5.3,   0.0,  0.00, 
 02/04/05, 07:00,  -2.1,  64,   3.1,   5.1,   5.3,   0.0,  0.44, 
 02/04/05, 08:00,  -0.7,  63,   2.9,   5.0,   5.2,   0.0,  1.26, 
 02/04/05, 09:00,   1.5,  57,   2.8,   4.9,   5.2,   0.0,  2.02, 
 02/04/05, 10:00,   4.4,  42,   2.8,   4.9,   5.3,   0.0,  2.64, 
 02/04/05, 11:00,   5.5,  44,   3.3,   4.6,   5.2,   0.0,  3.10, 
 02/04/05, 12:00,   7.4,  39,   4.2,   4.7,   5.3,   0.0,  3.31, 
 02/04/05, 13:00,   7.6,  44,   5.3,   4.7,   5.3,   0.0,  3.25, 
 02/04/05, 14:00,   8.1,  43,   6.3,   4.7,   5.3,   0.0,  3.06, 
 02/04/05, 15:00,   8.6,  50,   6.6,   4.8,   5.3,   0.0,  2.55, 
 02/04/05, 16:00,   7.3,  53,   6.6,   5.0,   5.2,   0.0,  1.90, 
 02/04/05, 17:00,   6.2,  58,   6.6,   5.2,   5.2,   0.0,  1.16, 
 02/04/05, 18:00,   4.1,  65,   6.4,   5.3,   5.2,   0.0,  0.37, 
 02/04/05, 19:00,   1.8,  75,   6.2,   5.4,   5.2,   0.0,  0.00, 
 02/04/05, 20:00,   1.2,  79,   5.9,   5.5,   5.2,   0.0,  0.00, 
 02/04/05, 21:00,   0.6,  82,   5.6,   5.6,   5.2,   0.0,  0.00, 
 02/04/05, 22:00,   0.6,  83,   5.3,   5.6,   5.2,   0.0,  0.00, 
 02/04/05, 23:00,  -0.5,  86,   5.0,   5.6,   5.2,   0.0,  0.00, 
 02/04/06, 00:00,   1.2,  76,   4.7,   5.5,   5.2,   0.0,  0.00, 
 02/04/06, 01:00,   1.7,  65,   4.5,   5.4,   5.2,   0.0,  0.00, 
 02/04/06, 02:00,   4.5,  35,   4.3,   5.4,   5.2,   0.0,  0.00, 
 02/04/06, 03:00,   3.4,  38,   4.1,   5.3,   5.2,   0.0,  0.00, 
 02/04/06, 04:00,   4.6,  28,   3.9,   5.2,   5.2,   0.0,  0.00, 
 02/04/06, 05:00,   4.6,  26,   3.8,   5.2,   5.2,   0.0,  0.00, 
 02/04/06, 06:00,   4.8,  26,   3.7,   5.1,   5.2,   0.0,  0.00, 
 02/04/06, 07:00,   6.5,  32,   3.5,   5.0,   5.2,   0.0,  0.40, 
 02/04/06, 08:00,   9.0,  22,   3.6,   5.0,   5.2,   0.0,  1.19, 
 02/04/06, 09:00,  10.6,  20,   3.8,   4.8,   5.2,   0.0,  1.92, 
 02/04/06, 10:00,  12.3,  25,   4.1,   4.8,   5.2,   0.0,  2.52, 
 02/04/06, 11:00,  13.8,  27,   4.7,   4.8,   5.2,   0.0,  2.71, 
 02/04/06, 12:00,  12.2,  24,   5.5,   4.8,   5.2,   0.0,  1.89, 
 02/04/06, 13:00,  11.6,  28,   6.2,   4.9,   5.2,   0.0,  1.17, 
 02/04/06, 14:00,  12.3,  27,   6.7,   5.0,   5.2,   0.0,  1.48, 
 02/04/06, 15:00,  10.6,  35,   7.1,   5.1,   5.2,   0.0,  0.89, 
 02/04/06, 16:00,   9.3,  46,   7.2,   5.2,   5.2,   0.0,  0.52, 
 02/04/06, 17:00,   8.1,  60,   7.2,   5.4,   5.1,   0.0,  0.21, 
 02/04/06, 18:00,   7.3,  70,   7.1,   5.6,   5.1,   0.0,  0.00, 
 02/04/06, 19:00,   6.5,  63,   7.0,   5.6,   5.1,   0.0,  0.00, 
 02/04/06, 20:00,   5.3,  74,   6.8,   5.7,   5.1,   0.0,  0.00, 
 02/04/06, 21:00,   4.6,  88,   6.6,   5.8,   5.1,   0.0,  0.00, 
 02/04/06, 22:00,   4.2,  95,   6.4,   5.8,   5.1,   0.0,  0.00, 
 02/04/06, 23:00,   4.4,  97,   6.2,   5.8,   5.2,   0.0,  0.00, 
 02/04/07, 00:00,   4.8,  99,   6.1,   5.8,   5.2,   0.5,  0.00, 
 02/04/07, 01:00,   5.0,  99,   6.0,   5.9,   5.2,   1.5,  0.00, 
 02/04/07, 02:00,   5.2,  99,   5.8,   5.8,   5.2,   1.5,  0.00, 
 02/04/07, 03:00,   5.1,  99,   5.7,   5.8,   5.2,   2.0,  0.00, 
 02/04/07, 04:00,   5.2,  99,   5.6,   5.8,   5.2,   2.0,  0.00, 
 02/04/07, 05:00,   5.0,  99,   5.6,   5.7,   5.2,   2.0,  0.00, 
 02/04/07, 06:00,   4.9,  99,   5.5,   5.7,   5.2,   0.5,  0.00, 
 02/04/07, 07:00,   5.7,  99,   5.5,   5.7,   5.3,   0.5,  0.08, 
 02/04/07, 08:00,   6.3,  99,   5.5,   5.7,   5.3,   0.0,  0.25, 
 02/04/07, 09:00,   6.4,  99,   5.6,   5.6,   5.2,   0.0,  0.39, 
 02/04/07, 10:00,   7.2,  99,   5.9,   5.6,   5.3,   0.0,  0.39, 
 02/04/07, 11:00,   9.3,  99,   6.1,   5.6,   5.3,   0.0,  1.05, 
 02/04/07, 12:00,  10.1,  99,   6.5,   5.6,   5.3,   0.0,  1.55, 
 02/04/07, 13:00,  11.6,  96,   7.1,   5.7,   5.3,   0.0,  1.49, 
 02/04/07, 14:00,  12.3,  91,   7.7,   5.7,   5.3,   0.0,  1.31, 
 02/04/07, 15:00,  11.2,  96,   8.2,   5.8,   5.3,   0.5,  0.89, 
 02/04/07, 16:00,  10.9,  94,   8.5,   6.1,   5.4,   0.0,  0.52, 
 02/04/07, 17:00,  11.4,  90,   8.7,   6.2,   5.4,   0.0,  0.44, 
 02/04/07, 18:00,   9.7,  98,   8.7,   6.3,   5.4,   0.0,  0.19, 
 02/04/07, 19:00,   8.3,  99,   8.7,   6.5,   5.4,   0.0,  0.00, 
 02/04/07, 20:00,   9.8,  95,   8.5,   6.6,   5.4,   0.0,  0.00, 
 02/04/07, 21:00,  11.9,  83,   8.4,   6.7,   5.3,   0.0,  0.00, 
 02/04/07, 22:00,   9.1,  92,   8.3,   6.8,   5.3,   0.0,  0.00, 
 02/04/07, 23:00,  11.4,  82,   8.2,   6.8,   5.4,   0.0,  0.00, 
 02/04/08, 00:00,  11.1,  86,   8.0,   6.9,   5.5,   0.0,  0.00, 
 02/04/08, 01:00,   9.8,  97,   7.9,   6.9,   5.5,   0.0,  0.00, 
 02/04/08, 02:00,  10.3,  96,   7.8,   6.9,   5.5,   0.0,  0.00, 
 02/04/08, 03:00,  10.6,  92,   7.8,   6.9,   5.5,   0.0,  0.00, 
 02/04/08, 04:00,  10.9,  93,   7.7,   6.9,   5.6,   0.0,  0.00, 
 02/04/08, 05:00,   9.9,  97,   7.7,   6.9,   5.6,   0.0,  0.00, 
 02/04/08, 06:00,  10.4,  93,   7.6,   6.9,   5.6,   0.0,  0.00, 
 02/04/08, 07:00,   9.6,  94,   7.6,   6.9,   5.6,   0.0,  0.14, 
 02/04/08, 08:00,  12.0,  88,   7.6,   6.9,   5.6,   0.0,  0.46, 
 02/04/08, 09:00,  14.2,  74,   7.8,   6.9,   5.7,   0.0,  1.22, 
 02/04/08, 10:00,  14.5,  72,   8.1,   6.9,   5.7,   0.0,  1.76, 
 02/04/08, 11:00,  14.6,  77,   8.7,   6.9,   5.7,   0.0,  2.16, 
 02/04/08, 12:00,  16.7,  64,   9.4,   7.0,   5.7,   0.0,  2.25, 
 02/04/08, 13:00,  17.8,  55,  10.3,   7.1,   5.7,   0.0,  2.94, 
 02/04/08, 14:00,  16.1,  57,  11.1,   7.2,   5.8,   0.0,  2.14, 
 02/04/08, 15:00,  17.9,  56,  11.3,   7.4,   5.8,   0.0,  2.24, 
 02/04/08, 16:00,  17.3,  57,  11.4,   7.7,   5.8,   0.0,  1.82, 
 02/04/08, 17:00,  14.9,  65,  11.4,   7.8,   5.8,   0.0,  1.06, 
 02/04/08, 18:00,  13.7,  73,  11.3,   8.0,   5.8,   0.0,  0.31, 
 02/04/08, 19:00,  12.5,  78,  11.1,   8.2,   5.9,   0.0,  0.00, 
 02/04/08, 20:00,  12.2,  84,  10.8,   8.3,   5.9,   0.0,  0.00, 
 02/04/08, 21:00,  11.9,  86,  10.6,   8.4,   5.9,   0.0,  0.00, 
 02/04/08, 22:00,  10.8,  98,  10.4,   8.5,   6.0,   0.0,  0.00, 
 02/04/08, 23:00,  11.6,  87,  10.2,   8.5,   6.0,   0.0,  0.00, 
 02/04/09, 00:00,  11.1,  91,  10.0,   8.5,   6.0,   0.0,  0.00, 
 02/04/09, 01:00,  10.9,  91,   9.9,   8.5,   6.1,   0.0,  0.00, 
 02/04/09, 02:00,  10.3,  95,   9.7,   8.5,   6.1,   0.0,  0.00, 
 02/04/09, 03:00,  10.4,  88,   9.6,   8.5,   6.2,   0.0,  0.00, 
 02/04/09, 04:00,  10.1,  90,   9.5,   8.5,   6.2,   0.0,  0.00, 
 02/04/09, 05:00,   8.7,  99,   9.3,   8.5,   6.2,   1.5,  0.00, 
 02/04/09, 06:00,   8.7,  99,   9.2,   8.4,   6.3,   0.0,  0.00, 
 02/04/09, 07:00,   9.0,  99,   9.1,   8.4,   6.3,   0.5,  0.01, 
 02/04/09, 08:00,   8.9,  99,   9.0,   8.4,   6.2,   0.0,  0.00, 
 02/04/09, 09:00,   7.1,  99,   8.9,   8.4,   6.4,   0.5,  0.00, 
 02/04/09, 10:00,   6.4,  99,   8.8,   8.3,   6.4,   4.5,  0.05, 
 02/04/09, 11:00,   7.4,  99,   8.7,   8.3,   6.4,   1.5,  0.19, 
 02/04/09, 12:00,   7.3,  99,   8.6,   8.3,   6.5,   0.5,  0.19, 
 02/04/09, 13:00,   7.7,  99,   8.6,   8.3,   6.5,   0.5,  0.59, 
 02/04/09, 14:00,   7.5,  99,   8.7,   8.2,   6.5,   0.0,  0.69, 
 02/04/09, 15:00,   7.0,  99,   8.9,   8.2,   6.6,   0.0,  0.66, 
 02/04/09, 16:00,   6.5,  99,   9.0,   8.2,   6.6,   0.0,  0.49, 
 02/04/09, 17:00,   5.1,  97,   9.0,   8.2,   6.6,   0.0,  0.44, 
 02/04/09, 18:00,   4.7,  90,   9.0,   8.2,   6.6,   0.0,  0.26, 
 02/04/09, 19:00,   3.8,  92,   8.8,   8.2,   6.7,   0.0,  0.00, 
 02/04/09, 20:00,   2.9,  97,   8.6,   8.2,   6.7,   0.0,  0.00, 
 02/04/09, 21:00,   2.7,  91,   8.2,   8.2,   6.7,   0.0,  0.00, 
 02/04/09, 22:00,   1.5,  98,   7.9,   8.1,   6.7,   0.0,  0.00, 
 02/04/09, 23:00,   1.4,  96,   7.6,   8.1,   6.7,   0.0,  0.00, 
 02/04/10, 00:00,   0.8,  99,   7.4,   8.0,   6.7,   0.0,  0.00, 
 02/04/10, 01:00,   0.5,  94,   7.2,   7.9,   6.7,   0.0,  0.00, 
 02/04/10, 02:00,  -0.2,  98,   6.9,   7.8,   6.7,   0.0,  0.00, 
 02/04/10, 03:00,  -0.9,  99,   6.7,   7.7,   6.8,   0.0,  0.00, 
 02/04/10, 04:00,  -0.9,  99,   6.5,   7.6,   6.8,   0.0,  0.00, 
 02/04/10, 05:00,  -1.0,  99,   6.2,   7.5,   6.8,   0.0,  0.00, 
 02/04/10, 06:00,  -1.1,  99,   6.1,   7.4,   6.8,   0.0,  0.00, 
 02/04/10, 07:00,  -0.8,  99,   5.9,   7.3,   6.8,   0.0,  0.08, 
 02/04/10, 08:00,  -0.7,  99,   5.7,   7.2,   6.8,   0.0,  0.31, 
 02/04/10, 09:00,   0.3,  97,   5.8,   7.1,   6.8,   0.0,  0.66, 
 02/04/10, 10:00,   1.5,  95,   5.9,   7.0,   6.8,   0.0,  1.13, 
 02/04/10, 11:00,   3.0,  87,   6.1,   6.9,   6.7,   0.0,  1.05, 
 02/04/10, 12:00,   5.3,  72,   6.4,   6.9,   6.7,   0.0,  1.86, 
 02/04/10, 13:00,   5.5,  28,   7.0,   6.8,   6.7,   0.0,  2.36, 
 02/04/10, 14:00,   6.9,  35,   7.3,   6.8,   6.7,   0.0,  2.79, 
 02/04/10, 15:00,   7.0,  32,   7.5,   6.8,   6.7,   0.0,  1.93, 
 02/04/10, 16:00,   6.8,  35,   7.7,   6.9,   6.7,   0.0,  1.67, 
 02/04/10, 17:00,   5.5,  42,   7.7,   7.0,   6.7,   0.0,  1.04, 
 02/04/10, 18:00,   4.3,  49,   7.6,   7.0,   6.7,   0.0,  0.36, 
 02/04/10, 19:00,   1.9,  60,   7.4,   7.1,   6.6,   0.0,  0.00, 
 02/04/10, 20:00,   2.2,  56,   7.0,   7.1,   6.6,   0.0,  0.00, 
 02/04/10, 21:00,   1.0,  62,   6.7,   7.1,   6.6,   0.0,  0.00, 
 02/04/10, 22:00,   1.0,  66,   6.3,   7.1,   6.6,   0.0,  0.00, 
 02/04/10, 23:00,   2.1,  56,   6.0,   7.0,   6.6,   0.0,  0.00, 
 02/04/11, 00:00,   1.3,  55,   5.8,   6.9,   6.6,   0.0,  0.00, 
 02/04/11, 01:00,   1.2,  53,   5.5,   6.9,   6.6,   0.0,  0.00, 
 02/04/11, 02:00,   1.8,  50,   5.3,   6.8,   6.6,   0.0,  0.00, 
 02/04/11, 03:00,   2.0,  52,   5.1,   6.7,   6.6,   0.0,  0.00, 
 02/04/11, 04:00,   0.5,  74,   5.0,   6.6,   6.6,   0.0,  0.00, 
 02/04/11, 05:00,   0.2,  76,   4.9,   6.5,   6.6,   0.0,  0.00, 
 02/04/11, 06:00,   1.7,  60,   4.8,   6.3,   6.6,   0.0,  0.00, 
 02/04/11, 07:00,   2.7,  60,   4.7,   6.2,   6.6,   0.0,  0.21, 
 02/04/11, 08:00,   3.9,  60,   4.8,   6.1,   6.6,   0.0,  0.65, 
 02/04/11, 09:00,   4.9,  57,   4.9,   6.0,   6.4,   0.0,  0.91, 
 02/04/11, 10:00,   6.4,  59,   5.3,   6.0,   6.4,   0.0,  1.48, 
 02/04/11, 11:00,   8.1,  53,   5.8,   5.9,   6.4,   0.0,  2.26, 
 02/04/11, 12:00,   8.4,  51,   6.5,   6.0,   6.5,   0.0,  2.96, 
 02/04/11, 13:00,  11.0,  46,   7.4,   6.0,   6.4,   0.0,  2.51, 
 02/04/11, 14:00,  10.7,  47,   8.0,   6.2,   6.5,   0.0,  2.07, 
 02/04/11, 15:00,   9.3,  52,   8.3,   6.2,   6.4,   0.0,  2.06, 
 02/04/11, 16:00,   8.7,  55,   8.6,   6.4,   6.4,   0.0,  0.86, 
 02/04/11, 17:00,   7.5,  60,   8.6,   6.6,   6.4,   0.0,  0.42, 
 02/04/11, 18:00,   6.2,  67,   8.5,   6.7,   6.4,   0.0,  0.10, 
 02/04/11, 19:00,   5.2,  75,   8.3,   6.9,   6.4,   0.0,  0.00, 
 02/04/11, 20:00,   3.3,  97,   8.1,   7.0,   6.3,   0.0,  0.00, 
 02/04/11, 21:00,   3.1,  99,   7.9,   7.1,   6.4,   0.5,  0.00, 
 02/04/11, 22:00,   2.8,  99,   7.6,   7.1,   6.4,   0.0,  0.00, 
 02/04/11, 23:00,   2.7,  99,   7.4,   7.1,   6.4,   1.0,  0.00, 
 02/04/12, 00:00,   2.2,  99,   7.2,   7.1,   6.3,   1.5,  0.00, 
 02/04/12, 01:00,   2.3,  99,   6.9,   7.1,   6.4,   2.0,  0.00, 
 02/04/12, 02:00,   2.2,  99,   6.7,   7.1,   6.3,   1.5,  0.00, 
 02/04/12, 03:00,   1.6,  99,   6.5,   7.0,   6.3,   2.0,  0.00, 
 02/04/12, 04:00,   0.4,  99,   6.2,   7.0,   6.3,   1.5,  0.00, 
 02/04/12, 05:00,   0.2,  99,   5.9,   6.9,   6.3,   2.0,  0.00, 
 02/04/12, 06:00,  -0.3,  99,   5.7,   6.8,   6.5,   1.5,  0.00, 
 02/04/12, 07:00,  -0.6,  99,   5.5,   6.7,   6.4,   0.5,  0.00, 
 02/04/12, 08:00,  -0.5,  99,   5.3,   6.6,   6.4,   0.5,  0.13, 
 02/04/12, 09:00,  -0.6,  99,   5.2,   6.5,   6.4,   0.5,  0.23, 
 02/04/12, 10:00,   0.5,  99,   5.1,   6.3,   6.4,   0.0,  0.51, 
 02/04/12, 11:00,   1.1,  99,   5.0,   6.3,   6.5,   0.0,  0.57, 
 02/04/12, 12:00,   0.9,  99,   5.0,   6.2,   6.5,   0.0,  0.56, 
 02/04/12, 13:00,   1.3,  99,   5.0,   6.2,   6.5,   0.0,  0.63, 
 02/04/12, 14:00,   2.4,  99,   5.0,   6.1,   6.5,   0.0,  1.19, 
 02/04/12, 15:00,   2.6,  99,   5.2,   6.0,   6.5,   0.0,  1.01, 
 02/04/12, 16:00,   1.7,  91,   5.2,   6.0,   6.4,   0.0,  0.48, 
 02/04/12, 17:00,   1.8,  93,   5.3,   6.0,   6.4,   0.0,  0.31, 
 02/04/12, 18:00,   1.6,  92,   5.3,   5.8,   6.3,   0.0,  0.19, 
 02/04/12, 19:00,   0.9,  91,   5.2,   5.9,   6.4,   0.0,  0.02, 
 02/04/12, 20:00,  -0.7,  97,   5.1,   5.9,   6.4,   0.0,  0.00, 
 02/04/12, 21:00,  -1.3,  99,   4.9,   5.9,   6.4,   0.0,  0.00, 
 02/04/12, 22:00,  -0.7,  99,   4.7,   5.7,   6.3,   0.0,  0.00, 
 02/04/12, 23:00,  -1.5,  93,   4.5,   5.7,   6.2,   0.0,  0.00, 
 02/04/13, 00:00,  -2.3,  96,   4.3,   5.7,   6.2,   0.0,  0.00, 
 02/04/13, 01:00,  -1.9,  73,   4.1,   5.6,   6.2,   0.0,  0.00, 
 02/04/13, 02:00,  -0.3,  68,   3.9,   5.6,   6.2,   0.0,  0.00, 
 02/04/13, 03:00,  -0.3,  74,   3.7,   5.5,   6.2,   0.0,  0.00, 
 02/04/13, 04:00,  -0.8,  49,   3.5,   5.4,   6.2,   0.0,  0.00, 
 02/04/13, 05:00,  -0.2,  40,   3.3,   5.3,   6.2,   0.0,  0.00, 
 02/04/13, 06:00,   0.0,  47,   3.2,   5.2,   6.1,   0.0,  0.06, 
 02/04/13, 07:00,   2.4,  38,   3.0,   5.2,   6.1,   0.0,  0.39, 
 02/04/13, 08:00,   3.5,  35,   2.9,   5.0,   6.1,   0.0,  0.89, 
 02/04/13, 09:00,   3.6,  47,   2.9,   4.9,   6.1,   0.0,  0.86, 
 02/04/13, 10:00,   5.4,  46,   3.1,   4.9,   6.2,   0.0,  1.31, 
 02/04/13, 11:00,   5.5,  56,   3.5,   4.8,   6.1,   0.0,  1.31, 
 02/04/13, 12:00,   5.4,  61,   4.0,   4.7,   6.0,   0.0,  1.09, 
 02/04/13, 13:00,   5.1,  68,   4.4,   4.7,   6.0,   0.0,  0.67, 
 02/04/13, 14:00,   4.0,  82,   4.7,   4.8,   6.1,   0.0,  0.39, 
 02/04/13, 15:00,   4.8,  83,   4.8,   4.8,   5.9,   0.0,  0.53, 
 02/04/13, 16:00,   4.3,  81,   5.0,   4.8,   5.9,   0.0,  0.56, 
 02/04/13, 17:00,   4.5,  79,   5.1,   5.0,   5.9,   0.0,  0.45, 
 02/04/13, 18:00,   3.3,  81,   5.1,   5.1,   5.9,   0.0,  0.40, 
 02/04/13, 19:00,   1.9,  82,   5.1,   5.1,   6.0,   0.0,  0.00, 
 02/04/13, 20:00,   1.5,  75,   4.9,   5.2,   5.8,   0.0,  0.00, 
 02/04/13, 21:00,   1.1,  76,   4.6,   5.2,   5.8,   0.0,  0.00, 
 02/04/13, 22:00,  -0.6,  85,   4.3,   5.2,   5.8,   0.0,  0.00, 
 02/04/13, 23:00,  -1.0,  86,   4.1,   5.2,   5.8,   0.0,  0.00, 
 02/04/14, 00:00,  -1.1,  87,   3.9,   5.1,   5.8,   0.0,  0.00, 
 02/04/14, 01:00,   2.8,  43,   3.7,   5.1,   5.8,   0.0,  0.00, 
 02/04/14, 02:00,   3.2,  29,   3.5,   4.9,   5.7,   0.0,  0.00, 
 02/04/14, 03:00,   4.6,  19,   3.4,   4.9,   5.7,   0.0,  0.00, 
 02/04/14, 04:00,   5.0,  16,   3.1,   4.8,   5.7,   0.0,  0.00, 
 02/04/14, 05:00,   5.4,  15,   3.1,   4.7,   5.7,   0.0,  0.00, 
 02/04/14, 06:00,   7.3,  12,   3.0,   4.7,   5.7,   0.0,  0.01, 
 02/04/14, 07:00,   8.3,  16,   2.8,   4.6,   5.7,   0.0,  0.34, 
 02/04/14, 08:00,  10.2,  20,   2.9,   4.5,   5.7,   0.0,  1.03, 
 02/04/14, 09:00,  12.0,  21,   3.2,   4.5,   5.7,   0.0,  1.86, 
 02/04/14, 10:00,  13.4,  24,   3.7,   4.4,   5.7,   0.0,  2.44, 
 02/04/14, 11:00,  13.9,  25,   4.5,   4.4,   5.7,   0.0,  2.83, 
 02/04/14, 12:00,  15.0,  27,   5.5,   4.4,   5.7,   0.0,  2.95, 
 02/04/14, 13:00,  16.2,  26,   6.8,   4.5,   5.7,   0.0,  3.10, 
 02/04/14, 14:00,  17.1,  25,   7.6,   4.8,   5.7,   0.0,  2.86, 
 02/04/14, 15:00,  16.6,  27,   7.9,   5.0,   5.7,   0.0,  2.43, 
 02/04/14, 16:00,  16.0,  28,   8.0,   5.2,   5.7,   0.0,  2.02, 
 02/04/14, 17:00,  14.6,  32,   8.3,   5.4,   5.6,   0.0,  1.14, 
 02/04/14, 18:00,  12.7,  33,   8.3,   5.6,   5.6,   0.0,  0.40, 
 02/04/14, 19:00,  11.4,  31,   8.1,   5.9,   5.6,   0.0,  0.01, 
 02/04/14, 20:00,  10.3,  28,   7.8,   6.1,   5.6,   0.0,  0.00, 
 02/04/14, 21:00,   7.8,  34,   7.5,   6.1,   5.6,   0.0,  0.00, 
 02/04/14, 22:00,   8.5,  36,   7.2,   6.2,   5.6,   0.0,  0.00, 
 02/04/14, 23:00,   7.1,  40,   6.9,   6.2,   5.7,   0.0,  0.00, 
 02/04/15, 00:00,  10.7,  26,   6.6,   6.3,   5.7,   0.5,  0.00, 
 02/04/15, 01:00,  10.4,  30,   6.4,   6.3,   5.7,   0.0,  0.00, 
 02/04/15, 02:00,  11.0,  28,   6.2,   6.2,   5.7,   0.0,  0.00, 
 02/04/15, 03:00,  12.5,  25,   6.1,   6.2,   5.7,   0.0,  0.00, 
 02/04/15, 04:00,  12.6,  27,   6.1,   6.2,   5.8,   0.0,  0.00, 
 02/04/15, 05:00,  13.1,  24,   6.0,   6.1,   5.7,   0.0,  0.00, 
 02/04/15, 06:00,  13.4,  21,   5.9,   6.1,   5.7,   0.0,  0.00, 
 02/04/15, 07:00,  14.1,  20,   5.9,   6.1,   5.7,   0.0,  0.36, 
 02/04/15, 08:00,  15.4,  20,   6.0,   6.0,   5.7,   0.0,  0.82, 
 02/04/15, 09:00,  17.2,  19,   6.2,   6.0,   5.7,   0.0,  2.03, 
 02/04/15, 10:00,  18.8,  18,   6.7,   6.0,   5.9,   0.0,  2.36, 
 02/04/15, 11:00,  19.5,  17,   7.4,   6.0,   5.9,   0.0,  2.67, 
 02/04/15, 12:00,  19.7,  19,   8.3,   6.2,   5.9,   0.0,  3.02, 
 02/04/15, 13:00,  20.3,  19,   9.4,   6.3,   5.9,   0.0,  2.91, 
 02/04/15, 14:00,  19.0,  21,  10.0,   6.5,   5.9,   0.0,  2.42, 
 02/04/15, 15:00,  18.1,  25,  10.4,   6.7,   5.9,   0.0,  1.74, 
 02/04/15, 16:00,  17.2,  29,  10.4,   6.9,   5.9,   0.0,  1.36, 
 02/04/15, 17:00,  15.5,  39,  10.5,   7.1,   5.9,   0.0,  0.51, 
 02/04/15, 18:00,  13.9,  55,  10.4,   7.3,   6.0,   0.0,  0.17, 
 02/04/15, 19:00,  12.9,  66,  10.2,   7.5,   6.0,   0.0,  0.00, 
 02/04/15, 20:00,  11.6,  74,  10.0,   7.6,   6.0,   0.0,  0.00, 
 02/04/15, 21:00,  11.0,  82,   9.8,   7.8,   6.0,   0.0,  0.00, 
 02/04/15, 22:00,  11.2,  78,   9.6,   7.8,   6.0,   0.0,  0.00, 
 02/04/15, 23:00,  10.6,  75,   9.4,   7.9,   6.1,   0.0,  0.00, 
 02/04/16, 00:00,  10.0,  71,   9.2,   7.9,   6.1,   0.0,  0.00, 
 02/04/16, 01:00,  11.0,  52,   9.1,   7.9,   6.1,   0.0,  0.00, 